Location: Schommer Observatory
(40.5200°N, 74.4500°W)
Time: 04:56:51
(UTC-04:00)

ISS - Pass Details

Date: 24 May 2018
Orbit: 402 x 407 km, 51.6° (Epoch: 24 May)

Event Time Altitude Azimuth Distance (km) Brightness Sun altitude
Rises 23:55:59 0° 301° (WNW) 2,319 0.7 -27.2°
Reaches altitude 10° 23:59:11 10° 336° (NNW) 1,459 -0.1 -27.4°
Maximum altitude 00:00:29 12° 359° (N) 1,353 -0.3 -27.4°
Drops below altitude 10° 00:01:47 10° 23° (NNE) 1,458 -0.4 -27.5°
Sets 00:04:59 0° 57° (ENE) 2,317 0.3 -27.6°
